Location: Newark
(45.9456°N, 15.4064°E)
Time: 14:56:42
(UTC+00:00)

SR - Pass Details

Date: 01 February 2020
Orbit: 575 x 880 km, 66.7° (Epoch: 22 February)

Event Time Altitude Azimuth Distance (km) Brightness Sun altitude
Rises 18:14:28 0° 173° (S) 3,402 ? -23.0°
Reaches altitude 10° 18:17:18 10° 161° (SSE) 2,499 ? -23.5°
Enters shadow 18:17:18 10° 161° (SSE) 2,496 ? -23.5°
Maximum altitude 18:21:57 25° 108° (ESE) 1,694 - -24.3°
Drops below altitude 10° 18:26:39 10° 55° (NE) 2,541 - -25.1°
Sets 18:29:33 0° 43° (NE) 3,472 - -25.6°
